Precipitable_Water
1.16 1.13 1.20 1.18 1.12 1.08 1.08 1.07 1.08 1.07 1.06 1.04 0.99 0.99 1.00 1.01 1.00 0.97 0.98 0.96 0.92 0.90 0.93 0.93 0.89 0.84 0.79 0.77 0.73 0.70 0.66 0.67 0.67 0.67 0.69 0.70 0.70 0.71 0.69 0.71 0.73 0.74
1.30 1.26 1.25 1.23 1.21 1.19 1.12 1.12 1.12 1.12 1.10 1.11 1.13 1.15 1.17 1.12 1.06 1.02 0.99 0.98 0.93 0.91 0.93 0.94 0.90 0.85 0.79 0.76 0.75 0.70 0.66 0.65 0.65 0.70 0.67 0.68 0.69 0.71 0.70 0.71 0.71 0.73
1.33 1.26 1.27 1.26 1.24 1.21 1.24 1.21 1.15 1.13 1.12 1.14 1.18 1.21 1.26 1.26 1.22 1.11 1.03 1.00 0.95 0.91 0.93 0.93 0.88 0.83 0.79 0.76 0.73 0.70 0.66 0.63 0.64 0.67 0.67 0.68 0.68 0.68 0.71 0.72 0.71 0.72
1.19 1.15 1.19 1.24 1.28 1.24 1.22 1.21 1.17 1.14 1.16 1.16 1.18 1.19 1.17 1.15 1.15 1.12 1.08 1.05 0.98 0.90 0.92 0.92 0.88 0.84 0.81 0.77 0.72 0.68 0.64 0.61 0.65 0.66 0.65 0.67 0.70 0.67 0.68 0.71 0.70 0.69
1.10 1.11 1.14 1.19 1.22 1.20 1.19 1.16 1.15 1.16 1.14 1.17 1.19 1.22 1.22 1.18 1.14 1.14 1.12 1.09 1.03 0.92 0.90 0.91 0.88 0.85 0.82 0.78 0.72 0.65 0.58 0.56 0.61 0.64 0.63 0.64 0.68 0.68 0.66 0.66 0.66 0.67
1.08 1.09 1.10 1.13 1.16 1.16 1.15 1.15 1.18 1.21 1.19 1.17 1.18 1.22 1.22 1.21 1.19 1.16 1.14 1.10 1.08 0.96 0.90 0.92 0.91 0.90 0.87 0.80 0.72 0.62 0.52 0.51 0.56 0.60 0.59 0.60 0.65 0.65 0.64 0.63 0.64 0.65
1.03 1.05 1.07 1.12 1.14 1.18 1.18 1.18 1.19 1.22 1.23 1.24 1.27 1.26 1.26 1.23 1.21 1.18 1.15 1.11 1.05 0.98 0.92 0.93 0.92 0.91 0.90 0.82 0.72 0.61 0.53 0.49 0.52 0.53 0.52 0.55 0.59 0.61 0.60 0.57 0.60 0.60
1.02 1.08 1.11 1.12 1.12 1.14 1.13 1.14 1.15 1.17 1.21 1.22 1.17 1.19 1.23 1.24 1.24 1.21 1.16 1.11 1.05 1.00 0.94 0.96 0.96 0.92 0.89 0.83 0.74 0.62 0.55 0.51 0.47 0.44 0.45 0.49 0.51 0.51 0.55 0.54 0.53 0.55
0.98 1.00 1.05 1.08 1.10 1.12 1.13 1.14 1.17 1.19 1.23 1.20 1.17 1.16 1.18 1.18 1.20 1.22 1.19 1.15 1.09 1.03 0.98 0.97 0.97 0.93 0.89 0.85 0.76 0.65 0.54 0.48 0.46 0.44 0.38 0.37 0.43 0.45 0.48 0.49 0.45 0.47
0.91 0.96 0.98 1.01 1.03 1.07 1.10 1.14 1.17 1.19 1.22 1.20 1.20 1.20 1.18 1.21 1.22 1.22 1.20 1.16 1.11 1.05 1.01 0.99 0.96 0.92 0.89 0.87 0.79 0.68 0.55 0.44 0.43 0.42 0.35 0.32 0.39 0.42 0.44 0.44 0.43 0.43
0.85 0.87 0.88 0.91 0.96 1.01 1.04 1.10 1.15 1.18 1.21 1.20 1.20 1.19 1.20 1.19 1.19 1.19 1.19 1.18 1.13 1.08 1.04 1.00 0.96 0.91 0.88 0.87 0.82 0.74 0.59 0.45 0.42 0.40 0.34 0.32 0.39 0.43 0.46 0.46 0.45 0.43
0.76 0.80 0.82 0.84 0.87 0.92 0.99 1.05 1.10 1.15 1.18 1.21 1.21 1.19 1.20 1.23 1.21 1.14 1.14 1.18 1.17 1.16 1.11 1.04 0.98 0.90 0.87 0.87 0.84 0.76 0.66 0.52 0.42 0.37 0.34 0.32 0.37 0.42 0.42 0.45 0.45 0.43
0.67 0.68 0.72 0.78 0.85 0.89 0.93 0.98 1.05 1.09 1.11 1.13 1.19 1.18 1.15 1.12 1.15 1.16 1.18 1.22 1.21 1.20 1.15 1.07 0.99 0.92 0.88 0.87 0.85 0.78 0.68 0.56 0.42 0.33 0.33 0.33 0.38 0.40 0.41 0.43 0.43 0.41
0.65 0.64 0.62 0.65 0.73 0.82 0.87 0.91 0.96 1.03 1.10 1.13 1.14 1.15 1.14 1.14 1.14 1.14 1.15 1.16 1.20 1.20 1.18 1.11 1.01 0.95 0.91 0.87 0.84 0.79 0.71 0.59 0.45 0.34 0.33 0.38 0.39 0.40 0.42 0.42 0.40 0.40
0.61 0.58 0.58 0.58 0.62 0.69 0.74 0.77 0.83 0.90 0.98 1.07 1.13 1.15 1.16 1.18 1.22 1.20 1.20 1.21 1.23 1.20 1.17 1.13 1.03 0.96 0.93 0.88 0.83 0.78 0.71 0.63 0.50 0.35 0.33 0.37 0.38 0.40 0.42 0.42 0.41 0.40
0.56 0.55 0.54 0.54 0.57 0.63 0.66 0.68 0.68 0.75 0.81 0.86 0.96 1.07 1.14 1.19 1.19 1.20 1.19 1.21 1.21 1.20 1.16 1.15 1.07 1.00 0.96 0.91 0.86 0.79 0.73 0.68 0.56 0.39 0.35 0.36 0.36 0.39 0.41 0.41 0.40 0.39
0.55 0.51 0.50 0.48 0.49 0.52 0.56 0.59 0.61 0.64 0.69 0.74 0.80 0.91 1.02 1.12 1.18 1.18 1.17 1.17 1.21 1.23 1.23 1.20 1.14 1.05 0.97 0.92 0.86 0.80 0.75 0.71 0.60 0.43 0.38 0.37 0.36 0.37 0.37 0.38 0.37 0.36
0.54 0.50 0.45 0.43 0.45 0.47 0.48 0.52 0.58 0.61 0.64 0.68 0.70 0.75 0.86 0.98 1.05 1.13 1.17 1.16 1.18 1.18 1.16 1.17 1.13 1.09 1.00 0.93 0.87 0.82 0.79 0.74 0.67 0.52 0.41 0.36 0.37 0.37 0.38 0.38 0.36 0.33
0.50 0.47 0.44 0.39 0.39 0.41 0.47 0.50 0.52 0.55 0.59 0.64 0.66 0.70 0.74 0.79 0.92 1.03 1.12 1.18 1.18 1.17 1.15 1.15 1.13 1.09 1.02 0.95 0.89 0.85 0.81 0.77 0.72 0.62 0.48 0.38 0.36 0.37 0.37 0.36 0.35 0.33
0.48 0.45 0.40 0.40 0.39 0.40 0.42 0.45 0.50 0.53 0.56 0.64 0.68 0.70 0.69 0.70 0.77 0.89 1.03 1.12 1.14 1.17 1.19 1.19 1.18 1.12 1.03 0.96 0.92 0.87 0.83 0.79 0.75 0.68 0.56 0.45 0.38 0.36 0.35 0.35 0.35 0.34
0.43 0.40 0.40 0.40 0.40 0.40 0.41 0.44 0.46 0.50 0.52 0.57 0.63 0.69 0.68 0.67 0.71 0.77 0.89 1.03 1.13 1.15 1.15 1.15 1.18 1.17 1.09 0.98 0.93 0.91 0.87 0.83 0.79 0.73 0.62 0.49 0.43 0.37 0.36 0.36 0.37 0.37
0.41 0.40 0.40 0.39 0.38 0.39 0.40 0.42 0.44 0.47 0.49 0.53 0.58 0.66 0.67 0.68 0.71 0.77 0.80 0.90 1.04 1.14 1.16 1.16 1.19 1.18 1.13 1.05 0.95 0.91 0.90 0.85 0.81 0.76 0.68 0.55 0.46 0.42 0.38 0.38 0.39 0.40
0.39 0.39 0.36 0.37 0.40 0.39 0.39 0.41 0.41 0.42 0.46 0.51 0.56 0.63 0.63 0.63 0.68 0.74 0.79 0.79 0.84 0.98 1.11 1.16 1.18 1.20 1.19 1.13 1.02 0.93 0.89 0.87 0.83 0.78 0.71 0.60 0.48 0.46 0.43 0.39 0.40 0.40
0.40 0.39 0.36 0.36 0.40 0.40 0.39 0.40 0.42 0.43 0.45 0.53 0.57 0.60 0.61 0.63 0.66 0.70 0.75 0.78 0.77 0.79 0.91 1.05 1.15 1.20 1.21 1.19 1.07 1.00 0.93 0.88 0.86 0.81 0.73 0.65 0.54 0.50 0.48 0.45 0.41 0.40
0.38 0.38 0.36 0.34 0.38 0.40 0.40 0.41 0.42 0.44 0.47 0.51 0.53 0.60 0.66 0.67 0.65 0.66 0.68 0.74 0.82 0.84 0.82 0.89 1.05 1.17 1.20 1.20 1.15 1.07 0.99 0.92 0.87 0.83 0.76 0.68 0.60 0.53 0.50 0.48 0.43 0.41
0.36 0.35 0.34 0.34 0.36 0.37 0.39 0.42 0.44 0.45 0.47 0.47 0.49 0.56 0.62 0.70 0.73 0.72 0.69 0.67 0.72 0.81 0.85 0.85 0.90 1.03 1.16 1.19 1.20 1.13 1.04 0.97 0.90 0.83 0.77 0.72 0.65 0.56 0.49 0.47 0.45 0.42
Wind_Speed
16 16 17 17 17 18 18 19 19 19 19 18 18 17 17 16 16 15 15 15 14 14 13 13 12 13 12 12 12 12 12 12 12 12 11 11 12 12 12 12 11 11
16 16 17 18 18 19 19 20 21 21 21 20 19 18 17 16 16 16 15 15 15 14 14 13 12 12 12 12 12 12 12 12 12 12 11 11 12 12 11 11 10 10
17 17 17 18 19 19 20 20 22 22 23 22 21 19 18 18 18 17 16 16 15 15 14 13 12 12 12 12 12 12 12 12 12 12 12 12 12 12 11 10 10 10
17 17 17 18 19 19 20 21 21 22 23 22 22 21 20 20 19 18 17 17 16 15 14 13 12 12 12 12 12 12 13 13 12 11 11 12 11 11 11 10 9 10
18 18 19 19 19 20 20 21 21 22 22 21 21 21 21 21 20 19 18 18 16 16 15 13 12 12 12 13 13 13 13 13 12 11 11 12 11 11 10 9 9 9
19 19 20 20 20 20 20 21 21 21 20 20 20 21 22 22 21 21 20 18 17 16 15 14 13 13 13 13 13 13 13 12 12 11 11 11 11 10 9 9 9 9
21 20 20 20 20 20 20 20 20 20 19 19 20 21 21 22 23 22 21 19 17 16 15 14 13 13 14 13 13 13 13 12 12 12 11 11 11 10 9 9 8 8
22 22 21 21 20 20 20 20 20 20 20 20 20 21 21 21 22 22 21 20 18 16 16 14 14 14 14 13 13 13 13 12 12 12 12 11 11 10 10 9 8 8
23 22 22 21 21 21 21 21 21 21 20 21 21 21 21 20 21 21 21 20 19 18 16 15 15 15 14 13 13 12 12 12 12 11 11 11 11 10 10 9 8 8
23 23 23 23 22 22 22 21 21 21 21 21 21 21 21 20 20 21 21 21 20 19 17 16 15 15 15 14 13 12 12 12 11 11 11 10 10 10 9 8 8 8
24 24 24 24 24 24 23 22 22 21 21 21 22 21 21 20 20 20 21 21 20 20 18 17 16 16 15 14 13 12 11 11 11 11 10 10 10 9 8 8 8 8
24 25 25 25 25 25 24 24 23 22 22 22 22 21 21 20 20 20 21 21 21 20 19 18 17 16 16 15 14 13 12 11 11 11 11 10 10 10 9 8 8 8
26 26 26 27 27 26 26 25 24 23 22 22 22 22 21 21 21 20 20 20 21 21 20 18 18 17 16 15 14 13 12 11 10 10 10 10 10 9 9 8 8 8
27 28 28 28 29 28 27 26 25 24 23 22 22 22 22 22 21 21 20 20 20 21 21 19 18 17 16 16 15 14 13 11 10 10 10 10 10 9 9 8 8 8
28 29 30 30 30 30 29 27 26 25 24 23 22 22 22 23 22 22 21 21 21 21 21 20 19 18 17 16 15 14 13 12 11 10 10 10 10 9 9 8 8 8
31 32 32 32 32 31 30 29 27 26 25 24 23 22 22 22 22 22 21 21 21 21 21 21 20 19 18 17 16 15 14 12 11 10 10 10 10 10 9 8 8 8
34 34 34 34 33 32 31 30 28 27 25 24 23 22 21 21 22 22 21 21 21 21 21 21 20 19 19 18 17 16 14 13 12 10 10 11 11 10 10 9 8 8
37 37 36 36 34 33 32 31 29 28 26 24 23 22 21 21 21 21 21 20 20 20 20 20 20 19 19 19 18 16 15 14 12 11 11 11 11 11 10 10 9 8
38 38 38 37 35 33 32 31 30 28 26 25 23 22 21 21 20 21 20 19 19 19 20 20 20 19 19 19 18 17 16 15 14 12 11 12 12 12 11 11 10 9
39 39 38 37 35 33 32 30 29 28 26 25 23 22 21 20 20 20 20 18 18 18 20 21 21 20 20 20 19 18 18 17 15 14 13 12 12 12 12 11 11 10
39 38 37 35 33 31 30 28 27 26 25 24 23 22 21 20 20 20 20 19 17 18 19 21 22 22 21 21 20 19 18 18 16 15 14 13 13 13 13 12 11 11
37 36 35 33 31 29 28 26 25 25 24 23 22 21 20 20 19 19 19 19 18 17 18 18 20 22 21 21 21 20 19 18 17 16 15 14 14 13 13 13 12 11
35 34 32 31 29 28 27 26 25 24 23 22 20 19 19 19 18 18 18 19 18 17 17 16 17 20 22 22 22 22 20 19 19 18 17 16 15 14 14 13 13 12
34 32 31 30 29 27 26 26 24 23 23 21 19 18 18 18 17 17 17 18 18 17 17 16 15 17 20 22 23 23 22 21 20 19 18 17 16 16 15 14 13 13
33 32 30 29 28 27 26 25 24 23 22 20 18 17 17 17 17 17 17 17 17 17 17 17 16 15 17 20 23 24 24 23 22 21 20 18 17 17 16 15 14 14
32 31 30 28 27 27 26 25 24 22 22 20 18 17 17 16 16 17 17 16 17 16 15 16 18 17 16 17 21 25 26 25 23 22 21 20 18 18 17 17 15 14
Wind_Direction
297 295 295 296 294 291 290 289 288 288 288 289 290 292 293 293 292 293 294 293 293 293 291 291 292 294 294 294 292 293 294 293 290 289 289 289 290 292 294 293 293 293
306 301 297 297 297 295 293 290 287 285 284 284 286 288 289 289 290 290 291 292 292 291 289 290 292 292 291 291 291 292 294 293 290 287 289 289 289 292 293 291 291 291
315 309 304 302 301 300 299 296 292 287 283 281 281 282 283 283 284 285 288 290 290 289 287 287 290 289 288 288 289 290 292 292 289 287 288 289 288 289 290 289 289 289
322 315 310 307 305 304 304 302 299 293 286 281 280 279 279 279 278 279 284 287 287 286 283 282 285 286 286 287 288 289 290 289 287 285 287 288 287 288 288 287 287 288
327 321 316 311 308 306 306 304 303 300 292 284 280 280 278 276 275 275 279 283 284 283 279 278 280 283 284 286 288 291 289 286 284 282 284 288 287 287 288 285 285 285
329 325 320 316 312 309 307 306 305 303 297 289 285 284 280 275 272 273 276 278 279 278 275 274 276 278 281 283 286 290 289 283 280 278 281 284 285 285 287 285 283 281
331 328 324 320 316 313 311 309 308 305 300 294 290 288 284 278 272 271 272 273 274 273 269 269 273 275 276 280 284 288 287 281 277 276 276 278 281 283 284 284 280 278
332 330 327 324 319 316 313 311 309 305 301 297 294 292 289 282 275 271 270 268 268 268 266 265 269 271 272 276 282 284 284 280 276 274 273 272 274 278 280 280 277 276
334 331 329 326 322 318 315 312 309 306 302 298 296 294 291 285 278 273 269 266 263 264 264 264 266 267 268 272 278 281 280 277 273 273 271 267 267 272 275 274 272 273
336 334 331 328 325 321 317 313 310 306 303 299 298 296 292 287 281 276 270 264 260 260 262 263 264 263 263 268 273 277 277 273 270 269 269 264 260 264 269 268 268 272
336 334 332 329 326 323 319 315 311 306 303 300 298 297 293 287 283 278 271 263 258 258 259 261 262 260 260 264 269 272 273 271 268 266 265 261 256 257 260 262 266 270
332 331 330 328 326 324 321 317 313 308 304 300 298 296 293 289 285 280 272 263 257 256 257 258 258 257 258 260 263 266 269 270 267 263 260 257 254 253 254 258 262 265
330 328 327 325 323 322 320 317 314 310 305 300 297 294 292 289 286 281 273 264 258 256 255 255 255 255 256 257 258 260 264 267 265 259 255 252 250 249 250 254 259 260
326 326 325 323 320 319 318 316 314 311 307 302 297 293 290 288 286 282 273 265 259 256 254 253 253 253 253 253 254 255 258 262 262 256 250 247 246 246 248 251 254 255
324 324 323 321 319 317 316 314 313 311 308 304 299 294 289 286 285 282 275 267 262 257 253 252 251 251 250 250 250 252 254 257 259 254 246 242 242 241 243 248 251 251
324 323 322 320 318 316 314 313 311 309 307 304 300 296 291 287 284 283 278 271 265 259 253 250 250 249 247 246 246 247 249 252 254 251 243 240 238 236 237 243 248 248
324 323 322 320 318 315 313 311 310 308 306 303 301 297 292 288 285 283 279 274 267 260 252 248 249 248 244 242 242 243 244 247 249 246 240 238 236 234 235 240 244 245
323 322 321 320 318 315 312 310 308 306 304 302 300 298 293 289 287 284 281 275 267 259 251 246 247 248 243 238 239 240 240 243 245 243 239 237 235 233 234 237 242 242
323 322 321 320 318 315 312 309 307 305 303 300 298 297 294 290 287 285 283 277 268 260 252 245 245 247 242 237 237 238 238 241 242 240 238 236 233 232 233 236 238 236
323 323 323 321 319 317 314 311 308 305 303 299 295 293 293 290 287 284 282 279 272 263 254 247 245 245 242 238 237 237 237 239 240 238 237 236 233 231 233 235 235 233
325 325 326 325 323 321 319 316 312 308 305 301 295 291 290 290 287 282 279 277 274 268 261 253 246 242 240 238 239 238 237 237 238 237 237 235 233 233 233 233 234 232
329 328 328 328 328 327 326 323 319 315 311 305 298 291 289 288 286 282 278 276 273 270 267 261 249 240 238 238 239 239 238 238 237 236 236 235 233 233 232 231 231 231
331 330 330 330 330 330 330 329 326 322 319 313 303 294 290 288 286 282 277 276 274 270 268 267 256 242 238 238 238 238 238 238 236 234 235 235 233 232 231 229 228 229
333 332 330 330 329 330 330 330 329 326 324 320 312 301 293 288 286 284 279 276 275 270 266 266 263 252 243 239 238 236 235 237 237 234 233 233 232 231 229 227 225 225
334 333 331 329 328 328 329 329 328 327 326 324 318 308 298 290 286 284 281 277 276 273 266 262 263 262 253 244 239 236 234 235 236 234 232 231 230 229 227 225 224 223
334 333 332 330 329 328 327 327 327 326 326 325 322 315 306 298 290 285 281 278 277 276 272 265 261 262 260 254 245 237 233 233 233 232 231 230 228 227 225 224 223 223